TimeHST,TemperatureF,Dew PointF,Humidity,Sea Level PressureIn,VisibilityMPH,Wind Direction,Wind SpeedMPH,Gust SpeedMPH,PrecipitationIn,Events,Conditions,WindDirDegrees,DateUTC
12:24 AM,71.6,68.0,88,30.01,10.0,NW,9.2,-,N/A,,Mostly Cloudy,320,2013-11-23 10:24:00
12:54 AM,73.9,68.0,82,30.03,10.0,North,9.2,-,N/A,,Overcast,10,2013-11-23 10:54:00
1:37 AM,75.2,66.2,73,30.01,10.0,North,12.7,-,N/A,,Mostly Cloudy,10,2013-11-23 11:37:00
1:54 AM,73.9,66.0,76,30.01,10.0,North,12.7,-,N/A,,Mostly Cloudy,360,2013-11-23 11:54:00
2:06 AM,73.4,64.4,73,30.00,10.0,North,13.8,-,N/A,,Mostly Cloudy,10,2013-11-23 12:06:00
2:54 AM,75.0,64.0,69,30.00,10.0,North,11.5,-,N/A,,Mostly Cloudy,10,2013-11-23 12:54:00
3:54 AM,73.9,66.0,76,30.00,10.0,NNE,10.4,-,N/A,,Overcast,20,2013-11-23 13:54:00
4:54 AM,73.9,64.0,71,30.00,10.0,NNE,12.7,-,N/A,,Overcast,20,2013-11-23 14:54:00
5:54 AM,73.0,64.0,73,30.00,10.0,NNE,9.2,-,N/A,,Partly Cloudy,30,2013-11-23 15:54:00
6:54 AM,71.1,64.0,78,30.02,10.0,NNE,9.2,-,N/A,,Scattered Clouds,20,2013-11-23 16:54:00
7:54 AM,75.0,63.0,66,30.04,10.0,NNE,12.7,-,N/A,,Scattered Clouds,30,2013-11-23 17:54:00
8:54 AM,79.0,63.0,58,30.04,10.0,NE,11.5,-,N/A,,Partly Cloudy,40,2013-11-23 18:54:00
9:54 AM,80.1,63.0,56,30.06,10.0,NNE,15.0,-,N/A,,Partly Cloudy,30,2013-11-23 19:54:00
10:54 AM,81.0,64.0,56,30.04,10.0,NNE,15.0,-,0.00,,Scattered Clouds,30,2013-11-23 20:54:00
11:54 AM,81.0,63.0,54,30.01,10.0,North,12.7,-,N/A,,Scattered Clouds,10,2013-11-23 21:54:00
12:54 PM,82.0,64.0,54,29.98,10.0,NNE,15.0,-,N/A,,Partly Cloudy,30,2013-11-23 22:54:00
1:54 PM,81.0,62.1,52,29.97,10.0,NNE,16.1,-,N/A,,Scattered Clouds,30,2013-11-23 23:54:00
2:54 PM,79.0,62.1,56,29.95,10.0,NNE,12.7,-,N/A,,Partly Cloudy,30,2013-11-24 00:54:00
3:54 PM,78.1,60.1,54,29.95,10.0,North,13.8,-,N/A,,Partly Cloudy,10,2013-11-24 01:54:00
4:54 PM,77.0,60.1,56,29.97,10.0,NNE,13.8,-,N/A,,Scattered Clouds,30,2013-11-24 02:54:00
5:54 PM,75.0,61.0,62,29.98,10.0,NE,11.5,-,N/A,,Partly Cloudy,40,2013-11-24 03:54:00
6:54 PM,75.0,60.1,60,30.00,10.0,NNE,12.7,-,N/A,,Mostly Cloudy,20,2013-11-24 04:54:00
7:54 PM,75.9,61.0,60,30.02,10.0,NE,13.8,-,N/A,,Partly Cloudy,40,2013-11-24 05:54:00
8:54 PM,73.9,59.0,59,30.03,10.0,NE,11.5,-,N/A,,Partly Cloudy,50,2013-11-24 06:54:00
9:54 PM,71.1,59.0,66,30.03,10.0,East,6.9,-,N/A,,Mostly Cloudy,80,2013-11-24 07:54:00
10:54 PM,71.1,59.0,66,30.03,10.0,East,6.9,-,N/A,,Mostly Cloudy,80,2013-11-24 08:54:00
11:54 PM,69.1,57.9,68,30.03,10.0,ENE,6.9,-,N/A,,Clear,70,2013-11-24 09:54:00